ARIANE 5 DEB, 43384

Orbit data source: Space-Track

ARIANE 5 DEB, 43384 is space debris in HEO originally from a launch on Thu, 12 Jun 2008 UTC launched from the French Guiana (FRGUI). Debris objects in space refer to the collection of defunct objects orbiting the Earth. Examples of debris include non-operational satellites, rocket bodies, and fragments generated from explosions, collisions, or faulty payload assembly.

Loading next visibility...
Identifier
43384, 2008-030G
Orbit
HEO
Country
Flag of FRFR
Related business
Manufacturer
Thales Alenia
Mission
Spacecraft
Bus & Motor
Unknown
Mass
Unknown
Launch date (UTC)
2008-06-12 (17 years ago)
Launch vehicle
Unknown
Launch site
French Guiana (FRGUI)
Object type
Payload
Rocket body
Debris
Shape & HBR
Unknown
Radar Cross Section
Medium (>0.1 m² and <1 m²)

Expand to show TLE details & history
Last TLE update: 1 day ago

TLE from 1 day ago
0 ARIANE 5 DEB
1 43384U 08030G   25245.60444481  .00000541  00000-0  15361-2 0  9990
2 43384   2.1411  26.1952 7193412 207.8921  80.8624  2.30571052139561
Epoch: 2025-09-02T14:30Z
TLE epoch observation values (Epoch: 2025-09-02T14:30:24.031Z)
Latitude
0.00009°
Longitude
-173.16252°
Altitude
25,834.962 km
Speed
2.877 km/s
True Right ascension
01h 45m 43s
True Declination
0° 00' 00"
Sunlit
Object was in daylight at epoch
Visualization orbit readout
Latitude
Unknown
Longitude
Unknown
Altitude
Unknown
Speed
Unknown
Apparent Right ascension
Unknown
Apparent Declination
Unknown
Sunlit
N/A
Visualization observer readout
Local Sidereal Time
06:25:02
Azimuth
Unknown
Elevation
Unknown
Doppler factor
Unknown
Orbital elements
Apogee altitude
35,244.047 km
Perigee altitude
416.112 km
Semi-major axis
24,208.217 km
Eccentricity
0.71934
Inclination
2.1411°
RAAN
26.1952°
Arg. of periapsis
207.8921°
True anomaly
152.41815°
Mean anomaly
80.8624°
Eccentric anomaly
117.44049°
Mean motion
0.57623 °/min
Orbital period
624.75 mins
BSTAR
0.0015361
Loading maneuver chart data...
Computing Atmospheric mass density...
Loading historical data...
Loading historical data...
Loading historical data...
Loading historical data...
Loading historical data...
Loading historical data...
Loading historical data...

Documentation

Showing up to 5 results
|